This demonstration page uses our WeatherBlox Daily Observations layout. Learn more.

Left ArrowRight Arrow

Hourly Observations for June 2, 2020

Temp ( °F °C ) Dew Point ( °F °C ) Humidity (%) Winds ( mph kmh ) Pressure ( in mb ) Visibility ( mi km ) Precip ( " mm )
12:56 am 00:56 Clear 74 23.2 65 18.1 73 73 S 7 11 29.92 1013 10 16 0.00 0.00
1:56 am 01:56 Clear 72 22.1 64 17.9 77 77 SSE 6 9 29.91 1013 10 16 0.00 0.00
2:56 am 02:56 Clear 71 21.7 64 17.7 78 78 S 6 9 29.91 1013 10 16 0.00 0.00
3:56 am 03:56 Clear 69 20.7 63 17.3 81 81 SSE 6 9 29.91 1013 10 16 0.00 0.00
4:56 am 04:56 Clear 68 20.2 63 17 82 82 SSE 5 7 29.89 1012 10 16 0.00 0.00
5:56 am 05:56 Sunny 68 20 63 17 83 83 SSE 5 7 29.91 1013 10 16 0.00 0.00
6:56 am 06:56 Sunny 69 20.8 63 17.4 81 81 S 6 9 29.91 1013 10 16 0.00 0.00
7:56 am 07:56 Sunny 73 22.6 64 17.9 75 75 S 7 11 29.91 1013 10 16 0.00 0.00
8:56 am 08:56 Sunny 77 25 65 18.2 66 66 SSW 12 19 29.89 1012 10 16 0.00 0.00
9:56 am 09:56 Sunny 81 27.4 67 19.2 61 61 SSW 14 22 29.89 1012 10 16 0.00 0.00
10:56 am 10:56 Mostly Sunny 82 28 66 18.9 58 58 SSW 13 20 29.87 1012 10 16 0.00 0.00
11:56 am 11:56 Mostly Sunny 87 30.3 67 19.6 53 53 S 14 22 29.86 1011 10 16 0.00 0.00
12:56 pm 12:56 Sunny 89 31.5 67 19.5 49 49 S 16 26 29.85 1011 10 16 0.00 0.00
1:56 pm 13:56 Mostly Sunny 92 33.3 67 19.7 45 45 SSW 17 28 29.84 1011 10 16 0.00 0.00
2:56 pm 14:56 Sunny 93 33.8 65 18.3 40 40 SSW 22 35 29.82 1010 10 16 0.00 0.00
3:56 pm 15:56 Sunny 94 34.4 66 18.8 40 40 SSW 18 30 29.81 1010 10 16 0.00 0.00
4:56 pm 16:56 Sunny 95 34.8 65 18.3 38 38 SSW 15 24 29.80 1009 10 16 0.00 0.00
5:56 pm 17:56 Sunny 94 34.4 64 18 38 38 SSW 20 31 29.79 1009 10 16 0.00 0.00
6:56 pm 18:56 Sunny 91 32.8 65 18.5 43 43 SSW 13 20 29.79 1009 10 16 0.00 0.00
7:56 pm 19:56 Sunny 90 32.1 66 19 46 46 SSW 12 19 29.78 1009 10 16 0.00 0.00
8:56 pm 20:56 Clear 85 29.6 68 19.9 56 56 S 8 13 29.80 1009 10 16 0.00 0.00
9:56 pm 21:56 Partly Cloudy 83 28.6 68 20 60 60 S 9 15 29.82 1010 10 16 0.00 0.00
10:56 pm 22:56 Mostly Cloudy 81 27.4 67 19.7 63 63 S 6 9 29.83 1010 10 16 0.00 0.00
11:56 pm 23:56 Mostly Clear 81 27.1 67 19.7 64 64 SW 8 13 29.84 1011 10 16 0.00 0.00

Powered by AerisWeather